,,,PA_Meas_PMT16A,,PR_Meas_QMR101_102,,RH_Meas_QMH101,,SR_Meas_QMS101,,TA_Meas_QMH101,,GenWind,,GenWind,
date,time,status,PA,status,PR,status,RH,status,SR,status,TA,status,DirAvg,status,SpdAvg,
2010-02-21, 00:00:04,VALID,1006.11,VALID,0,VALID,95.9866,VALID,0,VALID,23.8611,VALID,70,VALID,0,
2010-02-21, 00:01:04,VALID,1006.12,VALID,0,VALID,95.9637,VALID,0,VALID,23.8593,VALID,70,VALID,0,
2010-02-21, 00:02:04,VALID,1006.11,VALID,0,VALID,95.9637,VALID,0,VALID,23.8398,VALID,70,VALID,0,
2010-02-21, 00:03:04,VALID,1006.08,VALID,0,VALID,95.9713,VALID,0,VALID,23.8611,VALID,70,VALID,0,
2010-02-21, 00:04:04,VALID,1006.07,VALID,0,VALID,95.9942,VALID,0,VALID,23.8398,VALID,70,VALID,0,
2010-02-21, 00:05:04,VALID,1006.03,VALID,0,VALID,95.9866,VALID,0,VALID,23.8203,VALID,70,VALID,0,
2010-02-21, 00:06:04,VALID,1006.05,VALID,0,VALID,95.9637,VALID,0,VALID,23.8416,VALID,70,VALID,0,
2010-02-21, 00:07:04,VALID,1006.04,VALID,0,VALID,95.9713,VALID,0,VALID,23.8203,VALID,70,VALID,0,
2010-02-21, 00:08:04,VALID,1006.07,VALID,0,VALID,95.9942,VALID,0,VALID,23.8009,VALID,70,VALID,0,
2010-02-21, 00:09:04,VALID,1006.06,VALID,0,VALID,95.9789,VALID,0,VALID,23.8009,VALID,70,VALID,0,
2010-02-21, 00:10:04,VALID,1006.08,VALID,0,VALID,95.9713,VALID,0,VALID,23.8416,VALID,70,VALID,0,
2010-02-21, 00:11:04,VALID,1006.1,VALID,0,VALID,95.9789,VALID,0,VALID,23.8416,VALID,70,VALID,0,
2010-02-21, 00:12:04,VALID,1006.1,VALID,0,VALID,95.9713,VALID,0,VALID,23.8398,VALID,70,VALID,0,
2010-02-21, 00:13:04,VALID,1006.08,VALID,0,VALID,95.9484,VALID,0,VALID,23.8611,VALID,70,VALID,0,
2010-02-21, 00:14:04,VALID,1006.1,VALID,0,VALID,95.9561,VALID,0,VALID,23.8593,VALID,70,VALID,0,
2010-02-21, 00:15:04,VALID,1006.1,VALID,0,VALID,95.9637,VALID,0,VALID,23.8593,VALID,70,VALID,0,
2010-02-21, 00:16:04,VALID,1006.13,VALID,0,VALID,95.9484,VALID,0,VALID,23.8593,VALID,58,VALID,0,
2010-02-21, 00:17:04,VALID,1006.12,VALID,0,VALID,95.9637,VALID,0,VALID,23.9195,VALID,58,VALID,0,
2010-02-21, 00:18:04,VALID,1006.12,VALID,0,VALID,95.9561,VALID,0,VALID,23.8982,VALID,52,VALID,0,
2010-02-21, 00:19:04,VALID,1006.16,VALID,0,VALID,95.9484,VALID,0,VALID,23.9195,VALID,36,VALID,0,
2010-02-21, 00:20:04,VALID,1006.15,VALID,0,VALID,95.9561,VALID,0,VALID,23.9,VALID,35,VALID,0,
2010-02-21, 00:21:04,VALID,1006.17,VALID,0,VALID,95.9713,VALID,0,VALID,23.9,VALID,35,VALID,0,
2010-02-21, 00:22:04,VALID,1006.16,VALID,0,VALID,95.9637,VALID,0,VALID,23.9,VALID,35,VALID,0,
2010-02-21, 00:23:04,VALID,1006.17,VALID,0,VALID,95.9637,VALID,0,VALID,23.8787,VALID,35,VALID,0,
2010-02-21, 00:24:04,VALID,1006.16,VALID,0,VALID,95.9408,VALID,0,VALID,23.9195,VALID,35,VALID,0,
2010-02-21, 00:25:04,VALID,1006.16,VALID,0,VALID,95.9561,VALID,0,VALID,23.9195,VALID,35,VALID,0,
2010-02-21, 00:26:04,VALID,1006.13,VALID,0,VALID,95.9408,VALID,0,VALID,23.9177,VALID,35,VALID,0,
2010-02-21, 00:27:04,VALID,1006.13,VALID,0,VALID,95.9408,VALID,0,VALID,23.8982,VALID,35,VALID,0,
2010-02-21, 00:28:04,VALID,1006.13,VALID,0,VALID,95.9561,VALID,0,VALID,23.9584,VALID,35,VALID,0,
2010-02-21, 00:29:04,VALID,1006.14,VALID,0,VALID,95.9561,VALID,0,VALID,23.9371,VALID,35,VALID,0,
2010-02-21, 00:30:04,VALID,1006.13,VALID,0,VALID,95.9408,VALID,0,VALID,23.9371,VALID,35,VALID,0,
2010-02-21, 00:31:04,VALID,1006.14,VALID,0,VALID,95.9332,VALID,0,VALID,23.9584,VALID,35,VALID,0,
2010-02-21, 00:32:04,VALID,1006.12,VALID,0,VALID,95.9408,VALID,0,VALID,23.9371,VALID,35,VALID,0,
2010-02-21, 00:33:04,VALID,1006.13,VALID,0,VALID,95.9408,VALID,0,VALID,23.9371,VALID,35,VALID,0,
2010-02-21, 00:34:04,VALID,1006.11,VALID,0,VALID,95.9408,VALID,0,VALID,23.9584,VALID,29,VALID,0,
2010-02-21, 00:35:04,VALID,1006.15,VALID,0,VALID,95.9408,VALID,0,VALID,23.9389,VALID,29,VALID,0,
2010-02-21, 00:36:04,VALID,1006.12,VALID,0,VALID,95.9484,VALID,0,VALID,23.9177,VALID,29,VALID,0,
2010-02-21, 00:37:04,VALID,1006.11,VALID,0,VALID,95.9408,VALID,0,VALID,23.9177,VALID,29,VALID,0,
2010-02-21, 00:38:04,VALID,1006.15,VALID,0,VALID,95.9332,VALID,0,VALID,23.9177,VALID,29,VALID,0,
2010-02-21, 00:39:04,VALID,1006.1,VALID,0,VALID,95.9103,VALID,0,VALID,23.9408,VALID,29,VALID,0,
2010-02-21, 00:40:04,VALID,1006.12,VALID,0,VALID,95.9332,VALID,0,VALID,23.8982,VALID,23,VALID,0,
2010-02-21, 00:41:04,VALID,1006.11,VALID,0,VALID,95.9332,VALID,0,VALID,23.9177,VALID,351,VALID,0.851953,
2010-02-21, 00:42:04,VALID,1006.09,VALID,0,VALID,95.9332,VALID,0,VALID,23.9177,VALID,314,VALID,0.415625,
2010-02-21, 00:43:04,VALID,1006.04,VALID,0,VALID,95.9408,VALID,0,VALID,23.9389,VALID,348,VALID,0.508984,
2010-02-21, 00:44:04,VALID,1006,VALID,0,VALID,95.9408,VALID,0,VALID,23.8964,VALID,356,VALID,0.758203,
2010-02-21, 00:45:04,VALID,1005.97,VALID,0,VALID,95.9408,VALID,0,VALID,23.8982,VALID,358,VALID,0.0105469,
2010-02-21, 00:46:04,VALID,1005.93,VALID,0,VALID,95.9408,VALID,0,VALID,23.9177,VALID,357,VALID,0.41875,
2010-02-21, 00:47:04,VALID,1005.94,VALID,0,VALID,95.9484,VALID,0,VALID,23.9177,VALID,356,VALID,0,
2010-02-21, 00:48:04,VALID,1005.94,VALID,0,VALID,95.9332,VALID,0.100563,VALID,23.8964,VALID,356,VALID,0,
2010-02-21, 00:49:04,VALID,1005.93,VALID,0,VALID,95.9179,VALID,0,VALID,23.8769,VALID,356,VALID,0.405078,
2010-02-21, 00:50:04,VALID,1005.91,VALID,0,VALID,95.9408,VALID,0,VALID,23.838,VALID,356,VALID,0.425391,
2010-02-21, 00:51:04,VALID,1005.92,VALID,0,VALID,95.9408,VALID,0,VALID,23.8787,VALID,356,VALID,0.446484,
2010-02-21, 00:52:04,VALID,1005.93,VALID,0,VALID,95.9332,VALID,0,VALID,23.838,VALID,356,VALID,0.205469,
2010-02-21, 00:53:04,VALID,1005.89,VALID,0,VALID,95.9408,VALID,0,VALID,23.838,VALID,356,VALID,0.389844,
2010-02-21, 00:54:04,VALID,1005.87,VALID,0,VALID,95.9484,VALID,0,VALID,23.8398,VALID,356,VALID,0.478516,
2010-02-21, 00:55:04,VALID,1005.84,VALID,0,VALID,95.9255,VALID,0,VALID,23.8398,VALID,356,VALID,0.36875,
2010-02-21, 00:56:04,VALID,1005.85,VALID,0,VALID,95.9179,VALID,0,VALID,23.8398,VALID,356,VALID,0.244922,
2010-02-21, 00:57:04,VALID,1005.86,VALID,0,VALID,95.9255,VALID,0,VALID,23.8185,VALID,356,VALID,0.467578,
2010-02-21, 00:58:04,VALID,1005.88,VALID,0,VALID,95.9332,VALID,0,VALID,23.838,VALID,356,VALID,0.263672,
2010-02-21, 00:59:04,VALID,1005.85,VALID,0,VALID,95.9332,VALID,0,VALID,23.8398,VALID,356,VALID,0.537109,
2010-02-21, 01:00:04,VALID,1005.82,VALID,0,VALID,95.9103,VALID,0,VALID,23.8203,VALID,356,VALID,0.449219,
2010-02-21, 01:01:04,VALID,1005.83,VALID,0,VALID,95.9332,VALID,0,VALID,23.8611,VALID,356,VALID,0.270312,
2010-02-21, 01:02:04,VALID,1005.81,VALID,0,VALID,95.9332,VALID,0,VALID,23.8398,VALID,356,VALID,0.199609,
2010-02-21, 01:03:04,VALID,1005.78,VALID,0,VALID,95.9408,VALID,0,VALID,23.8416,VALID,356,VALID,0,
2010-02-21, 01:04:04,VALID,1005.77,VALID,0,VALID,95.9179,VALID,0,VALID,23.8611,VALID,356,VALID,0,
2010-02-21, 01:05:04,VALID,1005.78,VALID,0,VALID,95.9103,VALID,0,VALID,23.8805,VALID,356,VALID,0,
2010-02-21, 01:06:04,VALID,1005.78,VALID,0,VALID,95.9255,VALID,0,VALID,23.8805,VALID,356,VALID,0,
2010-02-21, 01:07:04,VALID,1005.78,VALID,0,VALID,95.9179,VALID,0,VALID,23.8593,VALID,356,VALID,0,
2010-02-21, 01:08:04,VALID,1005.76,VALID,0,VALID,95.9179,VALID,0,VALID,23.8805,VALID,356,VALID,0,
2010-02-21, 01:09:04,VALID,1005.74,VALID,0,VALID,95.9179,VALID,0,VALID,23.8787,VALID,356,VALID,0,
2010-02-21, 01:10:04,VALID,1005.71,VALID,0,VALID,95.9027,VALID,0,VALID,23.8982,VALID,79,VALID,0.703125,
2010-02-21, 01:11:04,VALID,1005.72,VALID,0,VALID,95.9179,VALID,0,VALID,23.8982,VALID,79,VALID,0.362891,
2010-02-21, 01:12:04,VALID,1005.73,VALID,0,VALID,95.9103,VALID,0,VALID,23.9177,VALID,79,VALID,0.524219,
2010-02-21, 01:13:04,VALID,1005.7,VALID,0,VALID,95.9179,VALID,0,VALID,23.9177,VALID,79,VALID,0.178125,
2010-02-21, 01:14:04,VALID,1005.69,VALID,0,VALID,95.9103,VALID,0,VALID,23.9177,VALID,79,VALID,0.140234,
2010-02-21, 01:15:04,VALID,1005.69,VALID,0,VALID,95.9255,VALID,0,VALID,23.9177,VALID,79,VALID,0.165625,
2010-02-21, 01:16:04,VALID,1005.7,VALID,0,VALID,95.9027,VALID,0,VALID,23.9177,VALID,78,VALID,0.233984,
2010-02-21, 01:17:04,VALID,1005.68,VALID,0,VALID,95.9027,VALID,0,VALID,23.9389,VALID,78,VALID,0.0878906,
2010-02-21, 01:18:04,VALID,1005.69,VALID,0,VALID,95.9179,VALID,0,VALID,23.9371,VALID,78,VALID,0.0800781,
2010-02-21, 01:19:04,VALID,1005.66,VALID,0,VALID,95.9179,VALID,0,VALID,23.9371,VALID,78,VALID,0,
2010-02-21, 01:20:04,VALID,1005.63,VALID,0,VALID,95.9179,VALID,0,VALID,23.9177,VALID,78,VALID,0,
2010-02-21, 01:21:04,VALID,1005.63,VALID,0,VALID,95.9027,VALID,0,VALID,23.9371,VALID,78,VALID,0,
2010-02-21, 01:22:04,VALID,1005.58,VALID,0,VALID,95.9179,VALID,0,VALID,23.9371,VALID,78,VALID,0,
2010-02-21, 01:23:04,VALID,1005.61,VALID,0,VALID,95.9027,VALID,0,VALID,23.9371,VALID,78,VALID,0,
2010-02-21, 01:24:04,VALID,1005.59,VALID,0,VALID,95.9027,VALID,0,VALID,23.9371,VALID,78,VALID,0,
2010-02-21, 01:25:04,VALID,1005.59,VALID,0,VALID,95.9103,VALID,0,VALID,23.9584,VALID,78,VALID,0,
2010-02-21, 01:26:04,VALID,1005.6,VALID,0,VALID,95.9103,VALID,0,VALID,23.9584,VALID,78,VALID,0,
2010-02-21, 01:27:04,VALID,1005.59,VALID,0,VALID,95.9103,VALID,0,VALID,23.9371,VALID,78,VALID,0.232422,
2010-02-21, 01:28:04,VALID,1005.58,VALID,0,VALID,95.895,VALID,0,VALID,23.9389,VALID,78,VALID,0.146875,
2010-02-21, 01:29:04,VALID,1005.56,VALID,0,VALID,95.895,VALID,0,VALID,23.9177,VALID,78,VALID,0.302734,
2010-02-21, 01:30:04,VALID,1005.54,VALID,0,VALID,95.895,VALID,0,VALID,23.9177,VALID,78,VALID,0.342969,
2010-02-21, 01:31:04,VALID,1005.56,VALID,0,VALID,95.8798,VALID,0,VALID,23.9371,VALID,78,VALID,0.3125,
2010-02-21, 01:32:04,VALID,1005.57,VALID,0,VALID,95.895,VALID,0,VALID,23.9584,VALID,78,VALID,0.150781,
2010-02-21, 01:33:04,VALID,1005.55,VALID,0,VALID,95.895,VALID,0,VALID,23.9779,VALID,78,VALID,0.132422,
2010-02-21, 01:34:04,VALID,1005.59,VALID,0,VALID,95.9103,VALID,0,VALID,23.9761,VALID,78,VALID,0.295703,
2010-02-21, 01:35:04,VALID,1005.59,VALID,0,VALID,95.895,VALID,0,VALID,23.9566,VALID,51,VALID,0,
2010-02-21, 01:36:04,VALID,1005.55,VALID,0,VALID,95.895,VALID,0,VALID,23.9371,VALID,35,VALID,0,
2010-02-21, 01:37:04,VALID,1005.57,VALID,0,VALID,95.9103,VALID,0,VALID,23.9779,VALID,33,VALID,0,
2010-02-21, 01:38:04,VALID,1005.53,VALID,0,VALID,95.9027,VALID,0,VALID,23.9371,VALID,33,VALID,0,
2010-02-21, 01:39:04,VALID,1005.53,VALID,0,VALID,95.9027,VALID,0,VALID,23.9779,VALID,33,VALID,0,
2010-02-21, 01:40:04,VALID,1005.53,VALID,0,VALID,95.895,VALID,0,VALID,23.9371,VALID,28,VALID,0,
2010-02-21, 01:41:04,VALID,1005.49,VALID,0,VALID,95.8798,VALID,0,VALID,23.9566,VALID,16,VALID,0,
2010-02-21, 01:42:04,VALID,1005.49,VALID,0,VALID,95.8874,VALID,0,VALID,23.9973,VALID,16,VALID,0,
2010-02-21, 01:43:04,VALID,1005.48,VALID,0,VALID,95.8798,VALID,0,VALID,23.9761,VALID,16,VALID,0,
2010-02-21, 01:44:04,VALID,1005.49,VALID,0,VALID,95.895,VALID,0,VALID,23.9761,VALID,16,VALID,0,
2010-02-21, 01:45:04,VALID,1005.47,VALID,0,VALID,95.8874,VALID,0,VALID,23.9566,VALID,16,VALID,0,
2010-02-21, 01:46:04,VALID,1005.48,VALID,0,VALID,95.895,VALID,0,VALID,23.9779,VALID,16,VALID,0,
2010-02-21, 01:47:04,VALID,1005.48,VALID,0,VALID,95.8798,VALID,0,VALID,23.9566,VALID,11,VALID,0,
2010-02-21, 01:48:04,VALID,1005.5,VALID,0,VALID,95.8874,VALID,0,VALID,23.9566,VALID,349,VALID,0.461328,
2010-02-21, 01:49:04,VALID,1005.48,VALID,0,VALID,95.8798,VALID,0,VALID,23.9779,VALID,349,VALID,0.530859,
2010-02-21, 01:50:04,VALID,1005.51,VALID,0,VALID,95.8721,VALID,0,VALID,23.9779,VALID,349,VALID,0.376172,
2010-02-21, 01:51:04,VALID,1005.46,VALID,0,VALID,95.8569,VALID,0,VALID,23.9779,VALID,349,VALID,0.323828,
2010-02-21, 01:52:04,VALID,1005.45,VALID,0,VALID,95.8721,VALID,0,VALID,23.9992,VALID,349,VALID,0.462891,
2010-02-21, 01:53:04,VALID,1005.46,VALID,0,VALID,95.8798,VALID,0,VALID,23.9195,VALID,11,VALID,1.53008,
2010-02-21, 01:54:04,VALID,1005.42,VALID,0,VALID,95.8798,VALID,0,VALID,23.9,VALID,358,VALID,0.63125,
2010-02-21, 01:55:04,VALID,1005.4,VALID,0,VALID,95.8569,VALID,0,VALID,23.9389,VALID,356,VALID,0.0265625,
2010-02-21, 01:56:04,VALID,1005.38,VALID,0,VALID,95.8569,VALID,0,VALID,23.9371,VALID,356,VALID,0.133594,
2010-02-21, 01:57:04,VALID,1005.38,VALID,0,VALID,95.8416,VALID,0,VALID,23.9779,VALID,356,VALID,0.535937,
2010-02-21, 01:58:04,VALID,1005.34,VALID,0,VALID,95.8416,VALID,0,VALID,23.9371,VALID,358,VALID,0.41875,
2010-02-21, 01:59:04,VALID,1005.31,VALID,0,VALID,95.8264,VALID,0,VALID,23.9371,VALID,25,VALID,0.637891,
2010-02-21, 02:00:04,VALID,1005.31,VALID,0,VALID,95.8187,VALID,0,VALID,23.9371,VALID,25,VALID,0.462109,
2010-02-21, 02:01:04,VALID,1005.28,VALID,0.5,VALID,95.8264,VALID,0,VALID,23.9566,VALID,25,VALID,0.318359,
2010-02-21, 02:02:04,VALID,1005.26,VALID,0,VALID,95.7882,VALID,0,VALID,23.9371,VALID,8,VALID,0.452734,
2010-02-21, 02:03:04,VALID,1005.29,VALID,0,VALID,95.7806,VALID,0,VALID,23.9371,VALID,10,VALID,0.7125,
2010-02-21, 02:04:04,VALID,1005.3,VALID,0,VALID,95.7577,VALID,0,VALID,23.9177,VALID,29,VALID,1.27578,
2010-02-21, 02:05:04,VALID,1005.28,VALID,0,VALID,95.7196,VALID,0,VALID,23.9584,VALID,33,VALID,0.348047,
2010-02-21, 02:06:04,VALID,1005.29,VALID,0,VALID,95.689,VALID,0,VALID,23.9566,VALID,355,VALID,0.353125,
2010-02-21, 02:07:04,VALID,1005.28,VALID,0,VALID,95.6662,VALID,0,VALID,23.9566,VALID,355,VALID,0.603516,
2010-02-21, 02:08:04,VALID,1005.28,VALID,0,VALID,95.6204,VALID,0,VALID,23.9761,VALID,7,VALID,0.560938,
2010-02-21, 02:09:04,VALID,1005.27,VALID,0,VALID,95.5746,VALID,0,VALID,23.9566,VALID,20,VALID,0.562891,
2010-02-21, 02:10:04,VALID,1005.29,VALID,0,VALID,95.5212,VALID,0,VALID,23.9779,VALID,25,VALID,0.625781,
2010-02-21, 02:11:04,VALID,1005.28,VALID,0,VALID,95.4526,VALID,0,VALID,23.9566,VALID,23,VALID,0.762109,
2010-02-21, 02:12:04,VALID,1005.25,VALID,0,VALID,95.4144,VALID,0,VALID,23.9779,VALID,22,VALID,1.31992,
2010-02-21, 02:13:04,VALID,1005.23,VALID,0,VALID,95.3457,VALID,0,VALID,23.9761,VALID,32,VALID,0.836719,
2010-02-21, 02:14:04,VALID,1005.25,VALID,0,VALID,95.2466,VALID,0,VALID,24.0539,VALID,35,VALID,0.465625,
2010-02-21, 02:15:04,VALID,1005.21,VALID,0,VALID,95.1169,VALID,0,VALID,24.0521,VALID,18,VALID,0.939844,
2010-02-21, 02:16:05,VALID,1005.22,VALID,0,VALID,94.9567,VALID,0.100563,VALID,24.0716,VALID,24,VALID,1.2,
2010-02-21, 02:17:05,VALID,1005.19,VALID,0,VALID,94.7736,VALID,0.100563,VALID,24.091,VALID,20,VALID,0.828906,
2010-02-21, 02:18:05,VALID,1005.18,VALID,0,VALID,94.5523,VALID,0,VALID,24.1318,VALID,10,VALID,1.27422,
2010-02-21, 02:19:05,VALID,1005.16,VALID,0,VALID,94.354,VALID,0,VALID,24.1105,VALID,34,VALID,0.644922,
2010-02-21, 02:20:05,VALID,1005.14,VALID,0,VALID,94.1556,VALID,0.100563,VALID,24.1318,VALID,33,VALID,0.66875,
2010-02-21, 02:21:05,VALID,1005.15,VALID,0,VALID,94.0412,VALID,0.100563,VALID,24.1105,VALID,21,VALID,0.671094,
2010-02-21, 02:22:05,VALID,1005.11,VALID,0,VALID,93.9802,VALID,0,VALID,24.1105,VALID,23,VALID,0.758984,
2010-02-21, 02:23:05,VALID,1005.14,VALID,0,VALID,93.9191,VALID,0,VALID,24.1105,VALID,20,VALID,0.434375,
2010-02-21, 02:24:05,VALID,1005.1,VALID,0,VALID,93.9191,VALID,0,VALID,24.1513,VALID,20,VALID,0.804688,
2010-02-21, 02:25:05,VALID,1005.08,VALID,0,VALID,93.8657,VALID,0,VALID,24.1513,VALID,19,VALID,0.535156,
2010-02-21, 02:26:05,VALID,1005.08,VALID,0,VALID,93.8657,VALID,0,VALID,24.13,VALID,16,VALID,0.520312,
2010-02-21, 02:27:05,VALID,1005.07,VALID,0,VALID,93.881,VALID,0,VALID,24.1513,VALID,15,VALID,0.571094,
2010-02-21, 02:28:05,VALID,1005.06,VALID,0,VALID,93.9039,VALID,0,VALID,24.13,VALID,20,VALID,1.39063,
2010-02-21, 02:29:05,VALID,1005.02,VALID,0,VALID,93.8963,VALID,0,VALID,24.1707,VALID,355,VALID,0.568359,
2010-02-21, 02:30:05,VALID,1005.02,VALID,0,VALID,93.8886,VALID,0,VALID,24.1902,VALID,358,VALID,0.452734,
2010-02-21, 02:31:05,VALID,1005.04,VALID,0,VALID,93.8581,VALID,0,VALID,24.1902,VALID,358,VALID,0.216797,
2010-02-21, 02:32:05,VALID,1005.04,VALID,0,VALID,93.8429,VALID,0,VALID,24.1689,VALID,358,VALID,0.0816406,
2010-02-21, 02:33:05,VALID,1005.06,VALID,0,VALID,93.8581,VALID,0,VALID,24.1707,VALID,2,VALID,0.578516,
2010-02-21, 02:34:05,VALID,1005.07,VALID,0,VALID,93.8505,VALID,0,VALID,24.1707,VALID,7,VALID,0.227734,
2010-02-21, 02:35:05,VALID,1005.06,VALID,0,VALID,93.82,VALID,0,VALID,24.1513,VALID,46,VALID,0.592969,
2010-02-21, 02:36:05,VALID,1005.08,VALID,0,VALID,93.7589,VALID,0,VALID,24.1494,VALID,30,VALID,1.19805,
2010-02-21, 02:37:05,VALID,1005.11,VALID,0,VALID,93.6521,VALID,0,VALID,24.2097,VALID,32,VALID,0.528125,
2010-02-21, 02:38:05,VALID,1005.12,VALID,0,VALID,93.553,VALID,0,VALID,24.2097,VALID,32,VALID,0.00585938,
2010-02-21, 02:39:05,VALID,1005.07,VALID,0,VALID,93.4843,VALID,0,VALID,24.2291,VALID,347,VALID,0.367969,
2010-02-21, 02:40:05,VALID,1005.07,VALID,0,VALID,93.4156,VALID,0.100563,VALID,24.2291,VALID,345,VALID,0.0210938,
2010-02-21, 02:41:05,VALID,1005.07,VALID,0,VALID,93.4156,VALID,0.100563,VALID,24.2078,VALID,345,VALID,0,
2010-02-21, 02:42:05,VALID,1005.08,VALID,0,VALID,93.3851,VALID,0.100563,VALID,24.2078,VALID,123,VALID,0.552734,
2010-02-21, 02:43:05,VALID,1005.08,VALID,0,VALID,93.4309,VALID,0,VALID,24.1884,VALID,168,VALID,0.805078,
2010-02-21, 02:44:05,VALID,1005.06,VALID,0,VALID,93.4767,VALID,0.100563,VALID,24.1689,VALID,177,VALID,0.569531,
2010-02-21, 02:45:05,VALID,1005.07,VALID,0,VALID,93.5377,VALID,0,VALID,24.1494,VALID,177,VALID,0.737109,
2010-02-21, 02:46:05,VALID,1005.07,VALID,0,VALID,93.5911,VALID,0,VALID,24.1513,VALID,177,VALID,0.500391,
2010-02-21, 02:47:05,VALID,1005.05,VALID,0,VALID,93.6216,VALID,0,VALID,24.1318,VALID,177,VALID,0.567578,
2010-02-21, 02:48:05,VALID,1005.06,VALID,0,VALID,93.7132,VALID,0.100563,VALID,24.1318,VALID,177,VALID,0.423438,
2010-02-21, 02:49:05,VALID,1005.06,VALID,0,VALID,93.7895,VALID,0,VALID,24.091,VALID,177,VALID,0.324219,
2010-02-21, 02:50:05,VALID,1005.05,VALID,0,VALID,93.8581,VALID,0.100563,VALID,24.0716,VALID,177,VALID,0.258984,
2010-02-21, 02:51:05,VALID,1005.04,VALID,0,VALID,93.8963,VALID,0,VALID,24.0521,VALID,177,VALID,0.294141,
2010-02-21, 02:52:05,VALID,1005.01,VALID,0,VALID,93.9725,VALID,0,VALID,24.0734,VALID,177,VALID,0,
2010-02-21, 02:53:05,VALID,1005.02,VALID,0,VALID,94.0488,VALID,0,VALID,24.0326,VALID,177,VALID,0,
2010-02-21, 02:54:05,VALID,1005.03,VALID,0,VALID,94.1022,VALID,0,VALID,24.0521,VALID,177,VALID,0,
2010-02-21, 02:55:05,VALID,1005.02,VALID,0,VALID,94.148,VALID,0,VALID,24.0345,VALID,177,VALID,0,
2010-02-21, 02:56:05,VALID,1004.99,VALID,0,VALID,94.2014,VALID,0.100563,VALID,24.0345,VALID,177,VALID,0,
2010-02-21, 02:57:05,VALID,1005.04,VALID,0,VALID,94.2472,VALID,0,VALID,24.0326,VALID,177,VALID,0,
2010-02-21, 02:58:05,VALID,1005.06,VALID,0,VALID,94.3082,VALID,0,VALID,23.9937,VALID,177,VALID,0,
2010-02-21, 02:59:05,VALID,1005.06,VALID,0,VALID,94.354,VALID,0.100563,VALID,23.9937,VALID,177,VALID,0,
2010-02-21, 03:00:05,VALID,1005.07,VALID,0,VALID,94.3845,VALID,0.100563,VALID,23.9937,VALID,177,VALID,0,
2010-02-21, 03:01:05,VALID,1005.07,VALID,0,VALID,94.3998,VALID,0.100563,VALID,23.9548,VALID,177,VALID,0,
2010-02-21, 03:02:05,VALID,1005.08,VALID,0,VALID,94.4379,VALID,0,VALID,23.9548,VALID,177,VALID,0,
2010-02-21, 03:03:05,VALID,1005.09,VALID,0,VALID,94.4913,VALID,0,VALID,23.9761,VALID,177,VALID,0,
2010-02-21, 03:04:05,VALID,1005.07,VALID,0,VALID,94.5142,VALID,0,VALID,23.9353,VALID,177,VALID,0,
2010-02-21, 03:05:05,VALID,1005.04,VALID,0,VALID,94.5676,VALID,0,VALID,23.9353,VALID,177,VALID,0.00429688,
2010-02-21, 03:06:05,VALID,1005.06,VALID,0,VALID,94.6057,VALID,0,VALID,23.9548,VALID,177,VALID,0.0488281,
2010-02-21, 03:07:05,VALID,1005.05,VALID,0,VALID,94.6439,VALID,0,VALID,23.9353,VALID,177,VALID,0.161328,
2010-02-21, 03:08:05,VALID,1005.07,VALID,0,VALID,94.6744,VALID,0,VALID,23.9353,VALID,177,VALID,0.170312,
2010-02-21, 03:09:05,VALID,1005.02,VALID,0,VALID,94.6897,VALID,0,VALID,23.9353,VALID,177,VALID,0.0535156,
2010-02-21, 03:10:05,VALID,1005.02,VALID,0,VALID,94.7202,VALID,0,VALID,23.9353,VALID,177,VALID,0,
2010-02-21, 03:11:05,VALID,1005.05,VALID,0,VALID,94.7278,VALID,0,VALID,23.9566,VALID,177,VALID,0.299219,
2010-02-21, 03:12:05,VALID,1005.04,VALID,0,VALID,94.7812,VALID,0,VALID,23.9566,VALID,177,VALID,0.254297,
2010-02-21, 03:13:05,VALID,1005.03,VALID,0,VALID,94.8041,VALID,0,VALID,23.9371,VALID,177,VALID,0.45,
2010-02-21, 03:14:05,VALID,1005.04,VALID,0,VALID,94.8117,VALID,0,VALID,23.8964,VALID,177,VALID,0.423047,
2010-02-21, 03:15:05,VALID,1005.03,VALID,0,VALID,94.8575,VALID,0,VALID,23.8982,VALID,87,VALID,0.263672,
2010-02-21, 03:16:05,VALID,1005.03,VALID,0,VALID,94.8499,VALID,0,VALID,23.8769,VALID,87,VALID,0.130469,
2010-02-21, 03:17:05,VALID,1005.03,VALID,0,VALID,94.8651,VALID,0.100563,VALID,23.838,VALID,87,VALID,0.0867188,
2010-02-21, 03:18:05,VALID,1004.99,VALID,0,VALID,94.8956,VALID,0.100563,VALID,23.838,VALID,87,VALID,0.0425781,
2010-02-21, 03:19:05,VALID,1005.02,VALID,0,VALID,94.9338,VALID,0,VALID,23.838,VALID,87,VALID,0,
2010-02-21, 03:20:05,VALID,1005,VALID,0,VALID,94.9643,VALID,0,VALID,23.8398,VALID,87,VALID,0,
2010-02-21, 03:21:05,VALID,1005,VALID,0,VALID,94.9796,VALID,0,VALID,23.8203,VALID,87,VALID,0,
2010-02-21, 03:22:05,VALID,1004.99,VALID,0,VALID,94.9796,VALID,0,VALID,23.7991,VALID,87,VALID,0,
2010-02-21, 03:23:05,VALID,1004.96,VALID,0,VALID,95.0101,VALID,0,VALID,23.7991,VALID,87,VALID,0,
2010-02-21, 03:24:05,VALID,1004.99,VALID,0,VALID,95.033,VALID,0,VALID,23.7991,VALID,87,VALID,0,
2010-02-21, 03:25:05,VALID,1004.97,VALID,0,VALID,95.0406,VALID,0.100563,VALID,23.8009,VALID,87,VALID,0,
2010-02-21, 03:26:05,VALID,1004.97,VALID,0,VALID,95.0635,VALID,0,VALID,23.7601,VALID,87,VALID,0,
2010-02-21, 03:27:05,VALID,1004.97,VALID,0,VALID,95.0864,VALID,0,VALID,23.7601,VALID,87,VALID,0,
2010-02-21, 03:28:05,VALID,1004.99,VALID,0,VALID,95.0864,VALID,0,VALID,23.7796,VALID,87,VALID,0.272656,
2010-02-21, 03:29:05,VALID,1005.03,VALID,0,VALID,95.1245,VALID,0.100563,VALID,23.7991,VALID,87,VALID,0.0304688,
2010-02-21, 03:30:05,VALID,1005.04,VALID,0,VALID,95.1474,VALID,0,VALID,23.8203,VALID,87,VALID,0,
2010-02-21, 03:31:05,VALID,1005.05,VALID,0,VALID,95.1627,VALID,0,VALID,23.8203,VALID,87,VALID,0,
2010-02-21, 03:32:05,VALID,1005.06,VALID,0,VALID,95.1932,VALID,0,VALID,23.8185,VALID,87,VALID,0,
2010-02-21, 03:33:05,VALID,1005.08,VALID,0,VALID,95.2084,VALID,0,VALID,23.7991,VALID,87,VALID,0,
2010-02-21, 03:34:05,VALID,1005.09,VALID,0,VALID,95.2008,VALID,0,VALID,23.7991,VALID,87,VALID,0,
2010-02-21, 03:35:05,VALID,1005.13,VALID,0,VALID,95.2237,VALID,0,VALID,23.7991,VALID,87,VALID,0,
2010-02-21, 03:36:05,VALID,1005.14,VALID,0,VALID,95.2389,VALID,0,VALID,23.7796,VALID,87,VALID,0,
2010-02-21, 03:37:05,VALID,1005.14,VALID,0,VALID,95.2389,VALID,0.100563,VALID,23.7814,VALID,87,VALID,0,
2010-02-21, 03:38:05,VALID,1005.15,VALID,0,VALID,95.2542,VALID,0.100563,VALID,23.7601,VALID,87,VALID,0,
2010-02-21, 03:39:05,VALID,1005.15,VALID,0,VALID,95.2695,VALID,0,VALID,23.7601,VALID,87,VALID,0,
2010-02-21, 03:40:05,VALID,1005.18,VALID,0,VALID,95.2695,VALID,0,VALID,23.7407,VALID,87,VALID,0,
2010-02-21, 03:41:05,VALID,1005.19,VALID,0,VALID,95.2847,VALID,0,VALID,23.7212,VALID,87,VALID,0,
2010-02-21, 03:42:05,VALID,1005.2,VALID,0,VALID,95.2771,VALID,0.100563,VALID,23.7212,VALID,87,VALID,0,
2010-02-21, 03:43:05,VALID,1005.23,VALID,0,VALID,95.3076,VALID,0.100563,VALID,23.723,VALID,87,VALID,0,
2010-02-21, 03:44:05,VALID,1005.24,VALID,0,VALID,95.2923,VALID,0,VALID,23.6841,VALID,87,VALID,0,
2010-02-21, 03:45:05,VALID,1005.22,VALID,0,VALID,95.2847,VALID,0,VALID,23.6841,VALID,87,VALID,0,
2010-02-21, 03:46:05,VALID,1005.25,VALID,0,VALID,95.3,VALID,0,VALID,23.6841,VALID,87,VALID,0,
2010-02-21, 03:47:05,VALID,1005.26,VALID,0,VALID,95.3152,VALID,0,VALID,23.6628,VALID,87,VALID,0,
2010-02-21, 03:48:05,VALID,1005.29,VALID,0,VALID,95.3076,VALID,0.100563,VALID,23.6823,VALID,87,VALID,0,
2010-02-21, 03:49:05,VALID,1005.29,VALID,0,VALID,95.3229,VALID,0.100563,VALID,23.6823,VALID,87,VALID,0.312109,
2010-02-21, 03:50:05,VALID,1005.28,VALID,0,VALID,95.3229,VALID,0,VALID,23.6628,VALID,87,VALID,0,
2010-02-21, 03:51:05,VALID,1005.29,VALID,0,VALID,95.3457,VALID,0.100563,VALID,23.6823,VALID,87,VALID,0.00429688,